Overview Statistics Trail Chart Weather Telemetry Raw packets
 

This is the latest recevied weather packets stored in our database for station/object K0APR. If no packets are shown the sender has not sent any weather packets the latest 10 day(s).

<< 54 55 56 57 58 59 60 >>
Time Temp. Humidity Pressure Rain* Wind** Luminosity Snow
1788299803 26.11° C 66% 1014.7 hPa 0 mm - 127 W/m² -
1788299499 26.11° C 66% 1014.7 hPa 0 mm - 98 W/m² -
1788299197 26.11° C 66% 1014.7 hPa 0 mm - 129 W/m² -
1788298897 26.11° C 66% 1014.7 hPa 0 mm - 123 W/m² -
1788298597 26.11° C 65% 1014.4 hPa 0 mm - 88 W/m² -
1788298291 26.67° C 64% 1014.4 hPa 0 mm - 98 W/m² -
1788297991 26.67° C 63% 1014.4 hPa 0 mm - 89 W/m² -
1788297687 26.67° C 63% 1014 hPa 0 mm - 85 W/m² -
1788297382 26.67° C 64% 1014.4 hPa 0 mm - 107 W/m² -
1788297079 26.67° C 63% 1014.4 hPa 0 mm - 121 W/m² -
1788296774 26.67° C 65% 1014.4 hPa 0 mm - 126 W/m² -
1788296470 26.67° C 65% 1014.7 hPa 0 mm - 139 W/m² -
1788296166 26.67° C 65% 1014 hPa 0 mm - 109 W/m² -
1788295865 26.67° C 63% 1014.4 hPa 0 mm - 92 W/m² -
1788295562 26.67° C 63% 1014 hPa 0 mm - 86 W/m² -
1788295256 26.67° C 64% 1013.7 hPa 0 mm - 137 W/m² -
1788294956 26.67° C 62% 1014 hPa 0 mm - 185 W/m² -
1788294651 26.67° C 63% 1014.4 hPa 0 mm - 206 W/m² -
1788294351 26.67° C 64% 1014.4 hPa 0 mm - 167 W/m² -
1788294048 26.67° C 64% 1014.4 hPa 0 mm - 103 W/m² -
1788293743 26.67° C 64% 1014.4 hPa 0 mm - 98 W/m² -
1788293442 26.67° C 64% 1014.4 hPa 0 mm - 111 W/m² -
1788293141 26.67° C 64% 1014.4 hPa 0 mm - 117 W/m² -
1788292837 26.67° C 64% 1014.4 hPa 0 mm - 114 W/m² -
1788292534 27.22° C 63% 1014 hPa 0 mm - 150 W/m² -

* Rain latest hour (hover to see other rain measurements)
** Current wind speed in m/s (hover to see current wind gust speed)